Location: ???? ?????
(30.0052°N, 31.2891°E)
Time: 16:22:41
(UTC+00:00)

Hubble Space Telescope - Pass Details

Date: 24 September 2024
Orbit: 503 x 507 km, 28.5° (Epoch: 12 October)

Event Time Altitude Azimuth Distance (km) Brightness Sun altitude
Exits shadow 02:25:34 - 188° (S) 1,909 3.4 -17.8°
Reaches altitude 10° 02:26:49 10° 172° (S) 1,692 3.3 -17.6°
Maximum altitude 02:28:04 11° 153° (SSE) 1,612 3.4 -17.3°
Drops below altitude 10° 02:29:20 10° 134° (SE) 1,694 3.8 -17.0°
Sets 02:32:59 0° 100° (E) 2,581 5.7 -16.2°
